Location: Beadle
(51.4667°N, 109.0000°W)
Time: 09:33:58
(UTC+00:00)

deb Explorer IX - Pass Details

Date: 31 May 2022
Orbit: 535 x 1068 km, 38.8° (Epoch: 04 July)

Event Time Altitude Azimuth Distance (km) Brightness Sun altitude
Rises 16:20:48 0° 215° (SW) 3,843 ? 45.5°
Reaches altitude 10° 16:24:24 10° 199° (SSW) 2,890 ? 46.0°
Maximum altitude 16:29:03 19° 158° (SSE) 2,273 ? 46.7°
Drops below altitude 10° 16:33:34 10° 116° (ESE) 2,792 ? 47.3°
Sets 16:36:58 0° 100° (E) 3,668 ? 47.8°
